|
Cosmos 2369 Rocket - Orbit
|
Plymouth;
05:45:58
| Home | Info | Passes |
|
View from above orbital plane
|
View from above satellite
|
Ground track
|
The orbit data is extracted from the following two-line orbital elements,
1 26070U 00006B 13139.48018248 -.00000229 00000-0 -93151-4 0 824
2 26070 071.0022 206.9290 0014151 099.5726 260.6996 14.15285561686698
| Epoch (UTC): | 19 May 2013 11:31:27 |
| Eccentricity: | 0.0014151 |
| inclination: | 71.0022° |
| perigee height: | 831 km |
| apogee height: | 851 km |
| right ascension of ascending node: | 206.9290° |
| argument of perigee: | 99.5726° |
| revolutions per day: | 14.15285561 |
| mean anomaly at epoch: | 260.6996° |
| orbit number at epoch: | 68669 |
The dashed part of the orbit path shows where the satellite is in the earth's shadow,
|
|